Вернуться в каталог

QIANFAN-133

АктивенСвязьPO
NORAD 69079·PAYLOAD·🇨🇳 China

Запущен May 12, 2026 с Taiyuan Satellite Launch Center

Loading…

Ближайшие Пролёты (ближайшие 24 часа)

TLE

СвежийSource: Space-Track

Эпоха: Sep 14, 2026, 14:52 UTC

1 69079U 26104G   26257.61970856  .00000122  00000-0  17069-3 0  9999
2 69079  88.9911 332.3452 0001915 112.6757 247.4597 13.51030203 17224

Отслеживайте QIANFAN-133 в реальном времени с AllMySat

Download on the App Store